Вернуться в каталог

CZ-6A DEB

АктивенSSO
NORAD 56274·DEBRIS·🇨🇳 China

Запущен Nov 11, 2022 с Taiyuan Satellite Launch Center

Loading…

Ближайшие Пролёты (ближайшие 24 часа)

TLE

СвежийSource: Space-Track

Эпоха: Sep 14, 2026, 10:33 UTC

1 56274U 22151ACS 26257.43998262 -.00000198  00000-0 -93014-4 0  9991
2 56274  98.8770 249.6312 0063576 118.3238 242.4363 14.05960409179004

Отслеживайте CZ-6A DEB в реальном времени с AllMySat

Download on the App Store